Location: Ecklingerode
(51.5036°N, 10.3122°E)
Time: 01:10:24
(UTC+00:00)

Cosmos 1697 Rocket - Pass Details

Date: 29 October 2020
Orbit: 831 x 845 km, 71.0° (Epoch: 23 November)

Event Time Altitude Azimuth Distance (km) Brightness Sun altitude
Rises 18:50:59 0° 224° (SW) 3,370 6.2 -27.5°
Reaches altitude 10° 18:53:28 10° 229° (SW) 2,442 5.5 -27.9°
Maximum altitude 18:58:57 54° 307° (NW) 1,014 3.3 -28.7°
Enters shadow 19:01:35 30° 10° (N) 1,479 3.9 -29.1°
